SPHEREX

导读

SPHEREx是美国宇航局于2025年3月12日发射的近红外空间天文台,运行于近地轨道上,核心任务是开展首个全天空近红外光谱巡天,将对数亿颗恒星与星系开展观测,绘制精确的宇宙膨胀地图,验证宇宙膨胀理论,探索早期宇宙演化与星系形成历史,同时将在银河系行星形成区域搜寻水、有机物等生命必需分子冰,助力探究行星宜居性与生命起源,是探索宇宙起源和行星系统的重要空间项目。

基本信息
目录编号:
63182
目录名称:
SPHEREX
国际标识:
2025-047E
轨道中心:
EARTH
卫星名称:
SPHEREX
卫星全名:
SPHEREX
卫星状态:
在轨 (已飞行542 天)
发射日期:
2025-03-12 UTC
国别 :
美国 (US)
星等 :
--
轨道信息
数据来源 国际轨道数据
星历时间: 2026-09-05T08:14:24+0800
10小时前
查看轨道信息
半长轴: 7025.856km
偏心率: 0.0009139
轨道倾角: 97.960°
近地点辐角 301.267°
升交点赤经 71.382°
平近点角 58.764°
近地点: 641.298km
远地点: 654.14km
周期: 97.681分钟
每日圈数: 14.741915
详细信息
使用方式:
暂无
2D轨道图
3D轨道图
轨道高度分析图
轨道倾角分析图
轨道综合分析图
查看轨道综合分析图
交会数据列表
事件ID 空间交会对象 最接近时刻(TCA) 交会距离 交会风险概率(CRP) 交会风险指数(CRI) 操作
CDM_260901-091904-096806-318227
BISONSAT (40968)
SPHEREX (63182)
2026-09-01T
09:19:39+0000
1.559 km
极远距离
3.641407E-6 低风险 0.46
CDM_260906-020002-009006-318222
SPHEREX (63182)
2026-09-06T
02:00:05+0000
1.942 km
极远距离
2.799927E-6 低风险 0.44